Miscellaneous Local Product
Issued by NWS North Platte, NE

Current Version | Previous Version | Text Only | Print | Product List | Glossary On
Versions: 1 2 3 4 5 6 7 8 9 10 11 12 13 14 15 16 17 18 19 20 21 22 23 24 25 26 27 28 29 30 31 32 33 34 35 36 37 38 39 40 41 42 43 44 45 46 47 48 49 50
000
AXUS43 KLBF 221910
MISLBF


WESTERN AND NORTH CENTRAL NEBRASKA HOURLY WEATHER ROUNDUP
NATIONAL WEATHER SERVICE NORTH PLATTE NE
200 PM CDT FRI AUG 22 2014

***STATIONS NOT REPORTING VARIABLES SUCH AS SKY/WEATHER OR
PRESSURE ARE PROVIDED BY THE NEBRASKA DEPARTMENT OF
ROADS...RAWS...AND APRS NETWORKS...AND ARE NOT UNDER
NATIONAL WEATHER SERVICE QUALITY CONTROL***

...OBSERVATIONS IN AND NEAR THE EASTERN PANHANDLE OF NEBRASKA...

CITY           SKY/WX    TMP DP  RH WIND       PRES   REMARKS
PINE RIDGE     CLOUDY    71  61  70 CALM      30.05F
CHADRON        CLOUDY    71  59  65 VRB3      30.05F
ALLIANCE       CLOUDY    77  54  44 VRB5      30.06F
SIDNEY         LGT RAIN  63  59  87 W10       30.14R FOG
WHITECLAY        N/A     72  59  64 S3          N/A
RUSHVILLE        N/A     74  59  60 E6          N/A
GORDON           N/A     80  62  52 E3          N/A
CRESCENT LAKE    N/A     68  59  73 S3          N/A
LISCO            N/A     71  62  75 E12         N/A
BIG SPRINGS      N/A     67  64  89 NW3         N/A
$$

...OBSERVATIONS IN NORTH CENTRAL NEBRASKA...

CITY           SKY/WX    TMP DP  RH WIND       PRES   REMARKS
VALENTINE      CLOUDY    77  61  57 W3        30.05R
THEDFORD       CLOUDY    73  63  72 CALM      30.06F
AINSWORTH      CLOUDY    77  63  61 CALM      30.04S
O`NEILL        CLOUDY    83  71  68 NE6       30.00F
ORD            MOSUNNY   88  67  49 E6        29.96F HX  91
BROKEN BOW     PTSUNNY   86  69  56 NE12      30.00S HX  90
BROWNLEE         N/A     76  67  72 SW5         N/A
SPRINGVIEW       N/A     80  71  74 CALM        N/A
ROSE             N/A     84  73  69 SW5         N/A  HX  91
NEWPORT          N/A     81  71  72 E7          N/A
SARGENT          N/A     85  69  58 CALM        N/A
COMSTOCK         N/A     91  72  52 NE3         N/A  HX  98
CHAMBERS         N/A     88  67  50 E3          N/A  HX  91
EWING            N/A     84  74  73 CALM        N/A  HX  91
$$

...OBSERVATIONS IN SOUTHWEST NEBRASKA AND FAR NORTHEAST COLORADO...

CITY           SKY/WX    TMP DP  RH WIND       PRES   REMARKS
WRAY             N/A     83  55  38 N15       30.06F
IMPERIAL       PTSUNNY   81  59  47 N14       30.04F
OGALLALA       CLOUDY    72  61  68 N12       30.05S
NORTH PLATTE   CLOUDY    80  63  55 NE9       30.03F
MCCOOK         MOSUNNY   90  62  39 N17       29.98F HX  90
LEXINGTON      MOSUNNY   88  71  56 NE12      29.99S HX  93
PAXTON           N/A     71  65  81 CALM        N/A
SUTHERLAND       N/A     82  64  54 S5          N/A
BRADY            N/A     80  61  52 CALM        N/A
GOTHENBURG       N/A     83  61  47 NW8         N/A
CALLAWAY         N/A     81  65  57 NW13        N/A
$$

...SOME WEATHER OBSERVATIONS FROM AROUND THE REGION...

CITY           SKY/WX    TMP DP  RH WIND       PRES   REMARKS
DENVER         CLOUDY    71  55  56 SE7       30.14F
LARAMIE        CLOUDY    70  42  36 S9G17     30.19F
CHEYENNE         N/A    N/A N/A N/A MISG        N/A
SCOTTSBLUFF    CLOUDY    74  53  48 E5        30.07F
RAPID CITY     PTSUNNY   74  62  66 E7        30.05F
PIERRE         CLOUDY    77  67  71 E9        29.99R
WINNER         FAIR      80  71  74 E7        30.00S
SIOUX FALLS    PTSUNNY   86  70  58 E9        29.98S HX  90
OMAHA          PTSUNNY   91  75  59 N7        29.90F HX 101
GRAND ISLAND   MOSUNNY   87  74  64 E7        29.96F HX  95
KANSAS CITY    CLOUDY    88  73  61 S10       29.94S HX  95
WICHITA        PTSUNNY   98  66  34 S18       29.90F HX 101
HAYS           SUNNY     91  68  46 NE9       29.91F HX  95
LIBERAL        SUNNY    100  59  25 S20       29.95F HX 100
GOODLAND       PTSUNNY   84  58  40 NE14      30.05S
$$



USA.gov is the U.S. government's official web portal to all federal, state and local government web resources and services.